Jacksonville, FL

10:05 PM EST on February 19, 2017 (GMT -0500)
Cecil

Weather History for KVQQ - November, 2012

Change the Weather History Date:

Thursday, November 1, 2012

  Actual Average (KNIP) Record (KNIP)
Temperature  
Mean Temperature 57 °F -  
Max Temperature 73 °F 75 °F 93 °F (2015)
Min Temperature 41 °F 59 °F 48 °F (2014)
Degree Days  
Heating Degree Days 8    
Growing Degree Days 7 (Base 50)    
Moisture  
Dew Point 47 °F    
Average Humidity 81    
Maximum Humidity 100    
Minimum Humidity 31    
Precipitation  
Precipitation 0.00 in - - ()
Sea Level Pressure  
Sea Level Pressure 29.98 in    
Wind  
Wind Speed 3 mph (WSW)    
Max Wind Speed 14 mph    
Max Gust Speed 23 mph    
Visibility 10 miles    
Events      
Averages and records for this station are not official NWS values.
T = Trace of Precipitation, MM = Missing Value Source: NWS Daily Summary

Daily Weather History Graph

Daily Weather History Graph

Search for Another Location

Airport or City:

Trip Planner

Search our weather history database for the weather conditions in past years. The results will help you decide how hot, cold, wet, or windy it might be!

Date:

Astronomy

Nov. 01, 2012 Rise Set
Actual Time 7:42 AM EDT 6:39 PM EDT
Civil Twilight 7:17 AM EDT 7:04 PM EDT
Nautical Twilight 6:48 AM EDT 7:32 PM EDT
Astronomical Twilight 6:20 AM EDT 8:00 PM EDT
Moon 8:44 PM EDT (11/1) 10:04 AM EDT (11/1)
Length of Visible Light 11h 47m
Length of Day
10h 57m
Waning Gibbous, 93% of the Moon is Illuminated
Nov 1
Waning Gibbous
Nov 6
Last Quarter
Nov 13
New
Nov 20
First Quarter
Nov 28
Full

Hourly Weather History & Observations

Time (EDT) Temp. Dew Point Humidity Pressure Visibility Wind Dir Wind Speed Gust Speed Precip Events Conditions
12:15 AM 55.4 °F 48.2 °F 77% 29.97 in 10.0 mi South 4.6 mph - N/A   Clear
12:35 AM 55.4 °F 48.2 °F 77% 29.97 in 10.0 mi Calm Calm - N/A   Clear
12:55 AM 53.6 °F 48.2 °F 82% 29.97 in 10.0 mi SSW 5.8 mph - N/A   Clear
1:15 AM 53.6 °F 48.2 °F 82% 29.97 in 10.0 mi SSW 3.5 mph - N/A   Clear
1:35 AM 53.6 °F 48.2 °F 82% 29.97 in 10.0 mi Calm Calm - N/A   Clear
1:55 AM 53.6 °F 50.0 °F 88% 29.97 in 10.0 mi SSW 5.8 mph - N/A   Clear
2:15 AM 55.4 °F 50.0 °F 82% 29.97 in 10.0 mi SW 6.9 mph - N/A   Clear
2:35 AM 55.4 °F 50.0 °F 82% 29.97 in 10.0 mi SSW 6.9 mph - N/A   Clear
2:55 AM 55.4 °F 51.8 °F 88% 29.96 in 10.0 mi SSW 6.9 mph - N/A   Clear
3:15 AM 55.4 °F 51.8 °F 88% 29.96 in 10.0 mi SW 4.6 mph - N/A   Clear
3:35 AM 53.6 °F 51.8 °F 94% 29.96 in 10.0 mi SW 3.5 mph - N/A   Clear
3:55 AM 53.6 °F 50.0 °F 88% 29.97 in 10.0 mi Calm Calm - N/A   Clear
4:15 AM 50.0 °F 50.0 °F 100% 29.97 in 10.0 mi Calm Calm - N/A   Clear
4:35 AM 50.0 °F 50.0 °F 100% 29.96 in 10.0 mi Calm Calm - N/A   Clear
4:55 AM 50.0 °F 50.0 °F 100% 29.96 in 10.0 mi SSW 3.5 mph - N/A   Clear
5:15 AM 50.0 °F 50.0 °F 100% 29.96 in 10.0 mi Calm Calm - N/A   Clear
5:35 AM 50.0 °F 50.0 °F 100% 29.96 in 10.0 mi Calm Calm - N/A   Clear
5:55 AM 50.0 °F 50.0 °F 100% 29.97 in 10.0 mi Calm Calm - N/A   Clear
6:15 AM 50.0 °F 50.0 °F 100% 29.97 in 8.0 mi Calm Calm - N/A   Clear
6:50 AM 48.2 °F 48.2 °F 100% 29.97 in 10.0 mi Calm Calm - N/A   Clear
7:50 AM 46.4 °F 46.4 °F 100% 29.99 in 10.0 mi Calm Calm - N/A   Clear
8:50 AM 51.8 °F 51.8 °F 100% 30.00 in 10.0 mi Calm Calm - N/A   Clear
9:50 AM 60.8 °F 51.8 °F 72% 30.01 in 10.0 mi West 6.9 mph - N/A   Scattered Clouds
10:50 AM 62.6 °F 42.8 °F 48% 30.03 in 10.0 mi NW 6.9 mph - N/A   Clear
11:50 AM 66.2 °F 46.4 °F 49% 30.01 in 10.0 mi NW 6.9 mph - N/A   Clear
12:50 PM 71.6 °F 46.4 °F 41% 29.99 in 10.0 mi WNW 8.1 mph - N/A   Partly Cloudy
1:50 PM 69.8 °F 46.4 °F 43% 29.96 in 10.0 mi WNW 9.2 mph - N/A   Scattered Clouds
3:50 PM 73.4 °F 42.8 °F 33% 29.91 in 10.0 mi West 9.2 mph - N/A   Clear
4:50 PM 73.4 °F 41.0 °F 31% 29.91 in 10.0 mi West 13.8 mph 23.0 mph N/A   Clear
5:50 PM 71.6 °F 39.2 °F 31% 29.92 in 10.0 mi WNW 10.4 mph - N/A   Clear
6:50 PM 64.4 °F 41.0 °F 42% 29.94 in 10.0 mi West 3.5 mph - N/A   Clear
7:50 PM 50.0 °F 46.4 °F 87% 29.96 in 10.0 mi Calm Calm - N/A   Clear
8:55 PM 46.4 °F 44.6 °F 93% 29.98 in 10.0 mi Calm Calm - N/A   Clear
9:15 PM 46.4 °F 42.8 °F 87% 29.99 in 10.0 mi Calm Calm - N/A   Clear
9:55 PM 44.6 °F 44.6 °F 100% 30.00 in 10.0 mi Calm Calm - N/A   Clear
10:15 PM 44.6 °F 42.8 °F 93% 30.01 in 10.0 mi Calm Calm - N/A   Clear
10:35 PM 44.6 °F 42.8 °F 93% 30.01 in 10.0 mi Calm Calm - N/A   Clear
10:55 PM 44.6 °F 42.8 °F 93% 30.02 in 10.0 mi Calm Calm - N/A   Clear
11:15 PM 42.8 °F 41.0 °F 93% 30.02 in 10.0 mi Calm Calm - N/A   Clear
11:35 PM 41.0 °F 41.0 °F 100% 30.02 in 10.0 mi Calm Calm - N/A   Clear
11:55 PM 41.0 °F 41.0 °F 100% 30.02 in 10.0 mi Calm Calm - N/A   Clear